www.pogodaiklimat.ru

Погода и климат >> Архив погоды >> Россия >> Якутия >> Сого-Хая


ПОГОДА в Сого-Хае

  • Прогноз погоды в Сого-Хае
  • Монитор погоды в Сого-Хае

АРХИВ ПОГОДЫ в Сого-Хае

Время (UTC), дата Ветер
(напр.,м/с)
 
Видим.   Явления Облачность Т
(С)
Тd
(С)
f
(%)
Тe
(С)
Тes
(С)
Комфортность P
(гПа)
Po
(гПа)
Тmin
(С)
Tmax
(С)
R
(мм)
R24
(мм)
S
(см)
06 16.07 СЗ 6-10
{12}
50 км 3/0
[Ci fib]
+23.8 +11.6 46 +25 +29 комфорт 1009.0 999.2
09 16.07 СЗ 4
{10}
4000 м мгла 4/0
[Ci fib]
+22.2 +11.7 51 +24 +26 комфорт 1008.6 998.7
12 16.07 СЗ 4 4000 м мгла 6/0
[Ci fib]
+19.4 +19 +19 1008.6 998.7 +24.5
15 16.07 СЗ 4 4000 м мгла 6/0
[Ci fib]
+17.2 +9.3 60 +17 +17 1008.1 998.1
18 16.07 СЗ 3 4000 м мгла 6/0
[Ci fib]
+15.8 +9.2 65 +15 +15 1007.8 997.7
21 16.07 СЗ 2 4000 м мгла 8/0
[Ac trans Cs]
+14.0 +10.6 80 +13 +14 1007.6 997.5
00 17.07 СЗ 1 50 км 9/0
[Ac trans Cs]
+18.7 +13.6 72 +21 +25 комфорт 1006.0 996.1 +13.4
03 17.07 штиль 0 50 км 9/0
[Ac trans]
+22.2 +14.2 60 +25 +33 комфорт 1002.9 993.2
06 17.07 СЗ 1 50 км 9/4 600 м
[Cb calv Ac trans Ci fib]
+23.8 +16.1 62 +27 +31 жарко 1000.6 990.9
09 17.07 СЗ 3 50 км 9/9 600 м
[Cb calv]
+24.4 +19.1 72 +29 +30 душно 997.8 988.2
12 17.07 СЗ 2 50 км {ливн. осадки} 9/9 600 м
[Cb cap]
+17.4 +17.1 98 +18 +18 998.9 989.0 +25.1 4
15 17.07 СЗ 3 50 км 9/9 600 м
[Cb cap]
+14.4 +13.9 97 +13 +13 999.2 989.2
18 17.07 СЗ 3 50 км 9/9 600 м
[Cb cap]
+13.0 +12.4 96 +12 +12 999.2 989.2
21 17.07 СЗ 4 50 км 6/0
[Ac trans]
+13.2 +11.3 88 +11 +12 999.2 989.2
00 18.07 СЗ 4 50 км 6/0
[Ac trans]
+15.5 +10.8 74 +15 +18 1000.9 990.9 +12.0
03 18.07 СЗ 4 50 км 8/3 600 м
[Cu med, cong Ac trans Ci fib]
+19.0 +10.9 59 +20 +23 1002.0 992.2
06 18.07 СЗ 4 50 км 8/3 600 м
[Cu med, cong Ac trans Ci fib]
+19.6 +8.3 48 +21 +23 комфорт 1003.7 993.8
09 18.07 СЗ 3 50 км 8/0
[Ac trans Ci fib]
+17.9 +5.5 44 +18 +20 1005.5 995.6
12 18.07 СЗ 2 50 км 6/0
[Ac trans]
+14.4 +5.0 53 +14 +14 1007.2 997.1 +20.6
15 18.07 СЗ 1 50 км 8/0
[Ac trans]
+11.8 +6.1 68 +12 +12 1007.7 997.5
18 18.07 штиль 0 50 км 8/0
[Ac trans]
+9.8 +6.8 82 +9 +9 1004.9 998.1
21 18.07 штиль 0 50 км 9/0
[Ac trans]
+11.4 +8.1 80 +11 +12 1009.3 999.1
00 19.07 штиль 0 50 км 8/0
[Ac trans]
+13.0 +7.3 68 +13 +17 1010.2 1000.1 +9.2
03 19.07 штиль 0 50 км 9/9 600 м
[Cb calv]
+15.4 +6.6 56 +15 +17 1011.3 1001.2
06 19.07 штиль 0 50 км 8/4 600 м
[Cb calv Ac trans]
+16.0 +3.4 43 +16 +20 1012.8 1002.7
09 19.07 СЗ 1 50 км 8/8 600 м
[Sc]
+15.9 +4.1 45 +17 +17 1013.8 1003.7
12 19.07 штиль 0 50 км 8/8 600 м
[Sc]
+14.2 +4.5 52 +14 +14 1015.3 1005.1 +16.9
15 19.07 штиль 0 50 км 6/6 600 м
[Sc]
+8.8 +3.5 69 +8 +8 1016.9 1006.5
18 19.07 штиль 0 50 км 6/0
[Ac trans Cs]
+6.3 +3.2 81 +5 +5 1017.5 1007.0
21 19.07 штиль 0 50 км 8/0
[Ac trans Cs]
+8.2 +4.1 75 +8 +9 1018.2 1007.7
00 20.07 С 2 50 км 6/0
[Cs]
+15.1 +6.2 55 +15 +21 1018.4 1008.2 +5.9
03 20.07 С 2 50 км 3/0
[Ci fib]
+18.4 +6.1 44 +19 +30 1018.9 1008.8
06 20.07 С 2 50 км 4/0
[Ci fib]
+21.6 +7.6 40 +23 +31 комфорт 1018.2 1008.2
09 20.07 С 2 50 км 3/0
[Ci fib]
+22.2 +8.4 41 +23 +26 комфорт 1017.7 1007.7
12 20.07 С 1 50 км ясно +18.4 +7.9 50 +20 +20 1018.0 1007.9 +23.1
15 20.07 штиль 0 50 км ясно +11.4 +7.2 75 +11 +11 1018.9 1008.7
18 20.07 штиль 0 50 км ясно +8.7 +6.3 85 +8 +8 1019.8 1009.3
21 20.07 штиль 0 50 км ясно +9.8 +8.8 93 +9 +11 1020.2 1009.8
00 21.07 штиль 0 50 км ясно +15.8 +11.2 74 +16 +25 1020.3 1010.1 +8.1
03 21.07 С 1 50 км ясно +22.4 +9.7 44 +24 +37 комфорт 1019.2 1009.2
06 21.07 С 2 50 км ясно +24.4 +10.1 40 +25 +34 комфорт 1017.4 1007.5
09 21.07 СЗ 3 50 км 3/0
[Ci fib]
+24.7 +10.3 40 +26 +28 жарко 1015.9 1006.1
12 21.07 СЗ 1 4000 м мгла 8/0
[Cs]
+18.4 +9.5 56 +20 +20 1015.7 1005.7 +25.6
15 21.07 штиль 0 4000 м 6/0
[Cs]
+13.4 +9.9 79 +13 +13 1015.1 1004.9
21 21.07 штиль 0 4000 м мгла 4/0
[Ci fib]
+13.1 +10.8 86 +13 +14 1014.2 1004.0
00 22.07 штиль 0 4000 м мгла 3/0
[Ci fib]
+22.2 +14.6 62 +26 +34 душно 1013.7 1003.9 +10.1
03 22.07 СЗ 2 50 км ясно +25.5 +13.0 46 +27 +39 жарко 1013.3 1003.5
06 22.07 СЗ 2 50 км ясно +26.7 +12.2 41 +28 +37 жарко 1012.1 1002.4
09 22.07 СЗ 2 50 км ясно +25.7 +11.7 42 +27 +30 жарко 1011.8 1002.1
12 22.07 СЗ 1 4000 м мгла ясно +21.0 +11.0 53 +24 +24 комфорт 1012.0 1002.1 +27.5
15 22.07 ЮЗ 1 50 км мгла ясно +13.4 +9.1 75 +14 +14 1012.7 1002.6
18 22.07 штиль 0 4000 м мгла ясно +10.6 +9.4 92 +10 +10 1013.7 1003.4
21 22.07 штиль 0 4000 м мгла ясно +11.2 +10.6 96 +10 +12 1014.8 1004.5
00 23.07 ЮВ 1 50 км ясно +20.0 +10.4 54 +23 +30 комфорт 1015.0 1005.0 +10.0

 

Местоположение метеостанции Сого-Хая (Якутия, Россия): широта 64.28 долгота 126.40 высота над уровнем моря 85 м.

В архиве по умолчанию представлена погода в Сого-Хае за последнюю неделю. Архивные данные за месяц целиком и за предыдущие месяцы, начиная с января 2011 года, Вы можете получить, выбрав интересующий диапазон дат из раскрывающегося списка и нажав кнопку "Ввод!".


*Определитесь, кто Вы:
робот инопланетянин человек

Внимание! Время в таблицах - всемирное. Для получения местного времени необходимо прибавить поправку, которая равна 9 ч.

Смотрите также архив погоды в соседних городах и на ближайших метеорологических станциях:

Погода в Сангаре (Якутия, Россия) (61 км)
Погода в Хатырык-Хомо (Якутия, Россия) (86 км)
Погода в Бестяхской Звероферме (Якутия, Россия) (157 км)
Погода в Батамае (Якутия, Россия) (169 км)
Погода в Сеген-Кюеле (Якутия, Россия) (192 км)
Погода в Себян-Кюеле (Якутия, Россия) (205 км)
Погода в Бердигестяхе (Якутия, Россия) (226 км)
Погода в Намцах (Якутия, Россия) (235 км)
Погода в Вилюйске (Якутия, Россия) (241 км)
Погода в Тонгулахе (Якутия, Россия) (279 км)

Пояснения к столбцам:

Ветер - указаны скорость ветра в м/с - средняя за 10 мин, порывы в срок и между сроками (в фигурных скобках) и направление, откуда дует ветер: С - северный, СВ - северо-восточный, В - восточный, ЮВ - юго-восточный, Ю - южный, ЮЗ - юго-западный, З - западный, СЗ - северо-западный.
Видимость - горизонтальная дальность видимости в метрах или километрах. При видимости от 1 до 10 км при отсутствии осадков обычно наблюдается дымка, при ухудшении видимости до 1 км и менее - туман. В сухую погоду видимость может ухудшаться дымом, пылью или мглою.
Явления - указаны атмосферные явления, наблюдавшиеся в срок или в последний час перед сроком; фигурными скобками обозначены явления, наблюдавшиеся между сроками (за 1-3 часа до срока); квадратными скобками обозначены град или гололедные отложения с указанием их диаметра в мм.
Облачность - указаны через наклонную черту общая и нижняя облачность в баллах и высота нижней границы облаков в метрах; квадратными скобками обозначены формы облаков: Ci - перистые, Cs - перисто-слоистые, Cc - перисто-кучевые, Ac - высококучевые, As - высокослоистые, Sc - слоисто-кучевые, Ns - слоисто-дождевые, Cu - кучевые, Cb - кучево-дождевые. Подробнее классификацию облаков см. в Атласе облаков (PDF).
T - Температура воздуха - температура, измеренная на высоте 2 м над землей.
Td - Температура точки росы - температура, при понижении до которой содержащийся в воздухе водяной пар достигнет насыщения.
f - Относительная влажность воздуха - влажноcть воздуха, измеренная на высоте 2 м над землей.
Te - Эффективная температура - температура, которую ощущает одетый по сезону человек в тени. Характеристика душности погоды. При расчете учитывается влияние влажности воздуха и скорости ветра на теплоощущения человека.
Tes - Эффективная температура на солнце - температура, которую ощущает человек, с поправкой на солнечный нагрев. Характеристика знойности погоды. Зависит от высоты солнца над горизонтом, облачности и скорости ветра. Ночью, в пасмурную погоду, а также при ветре 12 м/с и более поправка равна нулю.
P - Атмосферное давление - приведенное к уровню моря атмосферное давление.
Po - Атмосферное давление - измеренное на уровне метеостанции атмосферное давление.
Tmin - Минимальная температура - минимум температуры воздуха на высоте 2 м над землей.
Tmax - Максимальная температура - максимум температуры воздуха на высоте 2 м над землей.
R - Количество осадков - Количество выпавших осадков за период времени, мм. При наведении курсора мыши на число - период времени, за который выпало указанное количество осадков.
R24 - Количество осадков - Количество выпавших осадков за 24 часа, мм.
S - Снежный покров - Высота снежного покрова, см. При наведении курсора мыши на число - состояние снежного покрова и степень покрытия местности в баллах.